Date String (YYYY-MM-DD hh:mm:ss) UTC,Instrument flags,absolute air pressure of the measurement (hPa),sample flow rate (lpm),inlet stack bypass flow (lpm),air temperature of the measurement (°C),ambient temperature measured by the external sensor (°C),aerosol sample conditioner tube jacket temperature (°C),OPC LED temperature (°C),internal box temperature (°C),relative humidity of the measurement (%),span deviation,mass concentration of particles derived from Lorenz-Mie calculation of OPC scattering (μg/m³),mass concentration of particles derived from Lorenz-Mie calculation of OPC scattering (μg/m³),mass concentration of particles derived from Lorenz-Mie calculation of OPC scattering (μg/m³)
DateTimeUTC,F1_M11,P_M11,Q1_M11,Q2_M11,T1_M11,T2_M11,T3_M11,T4_M11,T5_M11,U1_M11,ZSPAN_M11,X2_M11,X0_M11,X1_M11
2024-06-06 21:00:00,SystemResetWarning,0831.4,4.99,000.00,029.2,028.7,000.0,037.3,031.1,022.2,0000.0,0004.21,0019.59,0002.21
2024-06-06 21:01:00,SystemResetWarning,0831.4,5.00,000.00,029.3,028.9,000.0,037.3,031.2,022.6,0000.0,0004.17,0018.90,0002.19
2024-06-06 21:02:00,SystemResetWarning,0831.4,5.00,000.00,029.4,028.9,000.0,037.4,031.2,021.8,0000.0,0004.12,0017.74,0002.15
2024-06-06 21:03:00,SystemResetWarning,0831.3,5.00,000.00,029.3,027.1,000.0,037.5,030.3,022.3,0000.0,0004.05,0018.25,0002.13
2024-06-06 21:04:00,SystemResetWarning,0831.3,5.01,000.00,028.8,025.5,000.0,037.5,029.5,022.8,0000.0,0003.96,0018.60,0002.14
2024-06-06 21:05:00,SystemResetWarning,0831.3,5.01,000.00,028.7,025.9,000.0,037.4,029.6,022.7,0000.0,0003.89,0017.00,0002.13
2024-06-06 21:06:00,SystemResetWarning,0831.3,5.00,000.00,028.7,026.4,000.0,037.3,029.9,023.0,0000.0,0003.77,0016.59,0002.12
2024-06-06 21:07:00,SystemResetWarning,0831.3,5.00,000.00,028.7,026.9,000.0,037.2,030.1,023.2,0000.0,0003.78,0017.59,0002.13
2024-06-06 21:08:00,SystemResetWarning,0831.3,5.00,000.00,028.8,027.3,000.0,037.2,030.4,022.7,0000.0,0003.80,0017.28,0002.15
2024-06-06 21:09:00,SystemResetWarning,0831.3,4.99,000.00,028.9,027.7,000.0,037.2,030.6,023.5,0000.0,0003.82,0018.12,0002.17
2024-06-06 21:10:00,SystemResetWarning,0831.3,5.00,000.00,028.9,028.0,000.0,037.2,030.7,023.9,0000.0,0003.90,0018.22,0002.19
2024-06-06 21:11:00,SystemResetWarning,0831.3,5.01,000.00,029.0,028.3,000.0,037.2,030.8,023.3,0000.0,0004.05,0020.56,0002.22
2024-06-06 21:12:00,SystemResetWarning,0831.3,5.00,000.00,029.1,028.5,000.0,037.2,031.0,024.4,0000.0,0004.11,0021.28,0002.22
2024-06-06 21:13:00,SystemResetWarning,0831.3,5.00,000.00,029.2,028.7,000.0,037.3,031.1,023.7,0000.0,0004.19,0022.17,0002.24
2024-06-06 21:14:00,SystemResetWarning,0831.3,5.00,000.00,029.3,028.9,000.0,037.3,031.2,023.1,0000.0,0004.28,0023.76,0002.26
2024-06-06 21:15:00,SystemResetWarning,0831.3,4.99,000.00,029.4,029.0,000.0,037.3,031.3,023.4,0000.0,0004.43,0024.68,0002.27
2024-06-06 21:16:00,SystemResetWarning,0831.3,5.00,000.00,029.5,028.9,000.0,037.4,031.2,023.1,0000.0,0004.63,0028.34,0002.29
2024-06-06 21:17:00,SystemResetWarning,0831.3,5.00,000.00,029.2,027.0,000.0,037.5,030.2,023.1,0000.0,0004.76,0029.36,0002.31
2024-06-06 21:18:00,SystemResetWarning,0831.2,5.02,000.00,028.9,025.7,000.0,037.5,029.6,023.2,0000.0,0004.75,0028.24,0002.33
2024-06-06 21:19:00,SystemResetWarning,0831.2,4.99,000.00,028.7,026.1,000.0,037.5,029.7,023.5,0000.0,0004.79,0029.02,0002.35
2024-06-06 21:20:00,SystemResetWarning,0831.2,4.99,000.00,028.7,026.5,000.0,037.3,030.0,023.7,0000.0,0004.82,0029.06,0002.38
2024-06-06 21:21:00,SystemResetWarning,0831.2,5.01,000.00,028.8,027.0,000.0,037.2,030.2,024.2,0000.0,0004.78,0030.17,0002.37
2024-06-06 21:22:00,SystemResetWarning,0831.2,5.01,000.00,028.8,027.4,000.0,037.2,030.4,024.0,0000.0,0004.76,0028.80,0002.36
2024-06-06 21:23:00,SystemResetWarning,0831.2,5.00,000.00,028.9,027.8,000.0,037.2,030.6,023.8,0000.0,0004.80,0028.72,0002.37
2024-06-06 21:24:00,SystemResetWarning,0831.2,5.00,000.00,029.0,028.1,000.0,037.2,030.8,023.4,0000.0,0004.77,0029.30,0002.38
2024-06-06 21:25:00,SystemResetWarning,0831.2,5.00,000.00,029.1,028.4,000.0,037.2,030.9,023.7,0000.0,0004.71,0028.19,0002.39
2024-06-06 21:26:00,SystemResetWarning,0831.2,5.00,000.00,029.2,028.6,000.0,037.3,031.0,024.0,0000.0,0004.63,0027.00,0002.39
2024-06-06 21:27:00,SystemResetWarning,0831.3,5.00,000.00,029.2,028.8,000.0,037.3,031.1,024.9,0000.0,0004.48,0024.62,0002.36
2024-06-06 21:28:00,SystemResetWarning,0831.2,4.99,000.00,029.3,029.0,000.0,037.3,031.2,024.5,0000.0,0004.47,0023.90,0002.36
2024-06-06 21:29:00,SystemResetWarning,0831.2,5.00,000.00,029.4,029.1,000.0,037.4,031.3,023.9,0000.0,0004.51,0024.79,0002.35
2024-06-06 21:30:00,SystemResetWarning,0831.2,4.99,000.00,029.5,028.8,000.0,037.5,031.1,022.7,0000.0,0004.49,0024.91,0002.32
2024-06-06 21:31:00,SystemResetWarning,0831.1,4.98,000.00,029.2,026.7,000.0,037.5,030.2,022.7,0000.0,0004.45,0024.65,0002.29
2024-06-06 21:32:00,SystemResetWarning,0831.2,5.01,000.00,028.9,025.7,000.0,037.5,029.6,023.3,0000.0,0004.44,0023.25,0002.28
2024-06-06 21:33:00,SystemResetWarning,0831.1,5.01,000.00,028.7,026.1,000.0,037.5,029.8,022.8,0000.0,0004.44,0021.84,0002.28
2024-06-06 21:34:00,SystemResetWarning,0831.1,4.99,000.00,028.7,026.6,000.0,037.3,030.0,023.2,0000.0,0004.42,0021.92,0002.29
2024-06-06 21:35:00,SystemResetWarning,0831.1,5.00,000.00,028.8,027.1,000.0,037.3,030.3,023.0,0000.0,0004.41,0021.18,0002.28
2024-06-06 21:36:00,SystemResetWarning,0831.2,5.00,000.00,028.9,027.5,000.0,037.2,030.5,023.0,0000.0,0004.46,0021.27,0002.28
2024-06-06 21:37:00,SystemResetWarning,0831.1,5.00,000.00,028.9,027.9,000.0,037.2,030.7,022.5,0000.0,0004.45,0021.64,0002.24
2024-06-06 21:38:00,SystemResetWarning,0831.2,5.00,000.00,029.0,028.2,000.0,037.2,030.8,022.2,0000.0,0004.42,0021.91,0002.22
2024-06-06 21:39:00,SystemResetWarning,0831.1,5.00,000.00,029.1,028.4,000.0,037.3,030.9,022.6,0000.0,0004.35,0022.95,0002.20
2024-06-06 21:40:00,SystemResetWarning,0831.1,5.00,000.00,029.2,028.6,000.0,037.3,031.1,022.7,0000.0,0004.27,0022.40,0002.19
2024-06-06 21:41:00,SystemResetWarning,0831.1,5.00,000.00,029.3,028.8,000.0,037.3,031.2,021.7,0000.0,0004.24,0021.40,0002.17
2024-06-06 21:42:00,SystemResetWarning,0831.2,5.00,000.00,029.4,029.0,000.0,037.4,031.3,021.3,0000.0,0004.23,0021.93,0002.17
2024-06-06 21:43:00,SystemResetWarning,0831.2,4.99,000.00,029.4,028.3,000.0,037.5,030.9,021.1,0000.0,0004.24,0022.94,0002.16
2024-06-06 21:44:00,SystemResetWarning,0831.0,5.01,000.00,029.1,026.2,000.0,037.5,029.9,021.8,0000.0,0004.20,0022.80,0002.15
2024-06-06 21:45:00,SystemResetWarning,0830.9,5.02,000.00,028.7,025.6,000.0,037.5,029.6,021.4,0000.0,0004.11,0022.87,0002.11
2024-06-06 21:46:00,SystemResetWarning,0831.0,5.00,000.00,028.7,026.2,000.0,037.4,029.8,021.7,0000.0,0004.09,0022.94,0002.07
2024-06-06 21:47:00,SystemResetWarning,0831.0,5.00,000.00,028.7,026.6,000.0,037.3,030.0,022.4,0000.0,0004.02,0022.76,0002.04
2024-06-06 21:48:00,SystemResetWarning,0831.0,5.00,000.00,028.8,027.1,000.0,037.3,030.3,023.0,0000.0,0004.05,0023.66,0002.05
2024-06-06 21:49:00,SystemResetWarning,0831.0,5.00,000.00,028.8,027.5,000.0,037.2,030.5,022.4,0000.0,0004.12,0023.22,0002.05
2024-06-06 21:50:00,SystemResetWarning,0831.0,5.01,000.00,028.9,027.9,000.0,037.2,030.6,023.0,0000.0,0004.22,0020.62,0002.05
2024-06-06 21:51:00,SystemResetWarning,0831.0,5.00,000.00,029.0,028.2,000.0,037.2,030.8,022.9,0000.0,0004.27,0020.40,0002.05
2024-06-06 21:52:00,SystemResetWarning,0830.9,5.00,000.00,029.1,028.4,000.0,037.2,030.9,021.8,0000.0,0004.31,0021.84,0002.06
2024-06-06 21:53:00,SystemResetWarning,0831.0,5.00,000.00,029.2,028.7,000.0,037.3,031.0,021.9,0000.0,0004.47,0024.41,0002.05
2024-06-06 21:54:00,SystemResetWarning,0830.9,4.99,000.00,029.3,028.9,000.0,037.3,031.2,021.9,0000.0,0004.49,0024.65,0002.06
2024-06-06 21:55:00,SystemResetWarning,0830.9,4.99,000.00,029.4,029.0,000.0,037.3,031.2,022.6,0000.0,0004.52,0025.54,0002.06
2024-06-06 21:56:00,SystemResetWarning,0830.9,5.00,000.00,029.3,027.9,000.0,037.4,030.7,022.1,0000.0,0004.60,0025.02,0002.07
2024-06-06 21:57:00,SystemResetWarning,0830.9,5.01,000.00,028.9,025.8,000.0,037.5,029.6,022.4,0000.0,0004.61,0025.25,0002.08
2024-06-06 21:58:00,SystemResetWarning,0830.9,5.02,000.00,028.7,025.7,000.0,037.4,029.5,023.0,0000.0,0004.64,0025.52,0002.09
2024-06-06 21:59:00,SystemResetWarning,0830.9,5.00,000.00,028.7,026.3,000.0,037.3,029.8,022.6,0000.0,0004.63,0024.16,0002.10
